FW5487 Weather Reports


time (UTC)temp
C
wind
direction
speed
KPH
gust
KPH
rain 1hr
cm
rain 24hr
cm
rain mn
cm
humidity
%
barometer
mb
20260906165204 34 341 4.8 11.3 0.00 0.00 0.00 53 1000.0
20260906164704 34 34 8.0 12.9 0.00 0.00 0.00 53 1000.0
20260906164204 34 319 4.8 12.9 0.00 0.00 0.00 53 1000.0
20260906163203 33 31 3.2 11.3 0.00 0.00 0.00 55 1000.0
20260906162705 33 347 4.8 11.3 0.00 0.00 0.00 56 1000.0
20260906162203 33 1 3.2 12.9 0.00 0.00 0.00 56 1000.0
20260906161204 33 45 3.2 11.3 0.00 0.00 0.00 57 1000.0
20260906160703 33 329 4.8 9.7 0.00 0.00 0.00 57 1000.0
20260906160203 32 43 4.8 11.3 0.00 0.00 0.00 58 1000.0
20260906155204 32 13 6.4 11.3 0.00 0.00 0.00 59 1000.0
20260906154204 32 357 4.8 11.3 0.00 0.00 0.00 59 1000.0
20260906153704 32 321 3.2 11.3 0.00 0.00 0.00 61 1000.0
20260906153203 32 7 4.8 12.9 0.00 0.00 0.00 60 1000.0
20260906152704 32 15 4.8 11.3 0.00 0.00 0.00 60 1000.0
20260906152204 32 9 3.2 11.3 0.00 0.00 0.00 60 1000.0
20260906151204 31 99 3.2 9.7 0.00 0.00 0.00 64 1000.0
20260906145704 30 80 4.8 11.3 0.00 0.00 0.00 66 1000.0
20260906145204 30 66 3.2 11.3 0.00 0.00 0.00 68 1000.0
20260906143704 28 125 8.0 12.9 0.00 0.00 0.00 70 1000.0
20260906143204 28 127 9.7 11.3 0.00 0.00 0.00 70 1000.0
20260906142704 28 129 8.0 11.3 0.00 0.00 0.00 70 1000.0
20260906142203 28 116 8.0 11.3 0.00 0.00 0.00 70 1000.0
20260906141203 28 115 4.8 11.3 0.00 0.00 0.00 71 1000.0
20260906140704 28 71 4.8 12.9 0.00 0.00 0.00 71 1000.0
20260906140203 28 110 4.8 9.7 0.00 0.00 0.00 71 1000.0
20260906135704 28 73 6.4 12.9 0.00 0.00 0.00 72 1000.0
20260906135203 28 89 4.8 14.5 0.00 0.00 0.00 72 1000.0
20260906134704 28 94 3.2 14.5 0.00 0.00 0.00 72 1000.0
20260906134204 28 60 3.2 11.3 0.00 0.00 0.00 72 1000.0
20260906133703 28 100 4.8 8.0 0.00 0.00 0.00 72 1000.0
20260906133203 28 67 4.8 9.7 0.00 0.00 0.00 73 1000.0
20260906132704 27 93 1.6 8.0 0.00 0.00 0.00 74 1000.0
20260906132203 27 30 3.2 8.0 0.00 0.00 0.00 74 1000.0
20260906131703 27 49 4.8 9.7 0.00 0.00 0.00 74 1000.0
20260906131204 27 78 1.6 8.0 0.00 0.00 0.00 75 1000.0
20260906130704 27 54 3.2 8.0 0.00 0.00 0.00 76 1000.0
20260906130203 27 47 3.2 11.3 0.00 0.00 0.00 76 1000.0
20260906125204 26 45 1.6 9.7 0.00 0.00 0.00 78 1000.0
20260906124703 26 80 3.2 8.0 0.00 0.00 0.00 78 1000.0
20260906124204 26 121 4.8 11.3 0.00 0.00 0.00 78 1000.0
20260906123704 26 73 3.2 9.7 0.00 0.00 0.00 79 1000.0
20260906123203 26 57 4.8 9.7 0.00 0.00 0.00 79 1000.0
20260906122704 26 22 4.8 9.7 0.00 0.00 0.00 79 1000.0
20260906121703 26 57 3.2 4.8 0.00 0.00 0.00 79 1000.0
20260906121203 26 48 3.2 4.8 0.00 0.00 0.00 79 1000.0
20260906120704 26 50 3.2 8.0 0.00 0.00 0.00 79 1000.0
20260906120203 26 45 1.6 3.2 0.00 0.00 0.00 79 1000.0
20260906115704 26 78 3.2 4.8 0.00 0.00 0.00 79 1000.0
20260906114704 26 37 1.6 4.8 0.00 0.00 0.00 78 1000.0
20260906114203 26 56 1.6 3.2 0.00 0.00 0.00 78 1000.0
20260906113704 26 45 0.0 0.0 0.00 0.00 0.00 78 1000.0
20260906113204 26 48 1.6 3.2 0.00 0.00 0.00 78 1000.0
20260906112703 26 72 3.2 8.0 0.00 0.00 0.00 78 1000.0
20260906112204 26 52 3.2 8.0 0.00 0.00 0.00 78 1000.0
20260906111703 26 43 1.6 4.8 0.00 0.00 0.00 78 1000.0
20260906111204 26 63 3.2 4.8 0.00 0.00 0.00 77 1000.0
20260906110704 26 37 3.2 4.8 0.00 0.00 0.00 77 1000.0
20260906105703 26 58 1.6 3.2 0.00 0.00 0.00 78 1000.0
20260906105204 26 50 1.6 3.2 0.00 0.00 0.00 78 1000.0
20260906104703 26 30 1.6 3.2 0.00 0.00 0.00 78 1000.0
20260906104204 26 23 1.6 1.6 0.00 0.00 0.00 78 1000.0
20260906103704 26 30 0.0 0.0 0.00 0.00 0.00 78 1000.0
20260906103203 26 28 1.6 3.2 0.00 0.00 0.00 77 1000.0
20260906102704 26 354 0.0 3.2 0.00 0.00 0.00 77 1000.0
20260906102203 27 3 3.2 4.8 0.00 0.00 0.00 77 1000.0
20260906101704 27 14 1.6 3.2 0.00 0.00 0.00 77 1000.0
20260906101203 27 37 1.6 3.2 0.00 0.00 0.00 76 1000.0
20260906100703 27 12 3.2 3.2 0.00 0.00 0.00 76 1000.0
20260906100204 27 352 1.6 4.8 0.00 0.00 0.00 75 1000.0
20260906095703 27 25 3.2 8.0 0.00 0.00 0.00 74 1000.0
20260906095204 27 11 3.2 4.8 0.00 0.00 0.00 75 1000.0
20260906094204 27 20 1.6 3.2 0.00 0.00 0.00 76 1000.0
20260906093704 27 8 1.6 4.8 0.00 0.00 0.00 76 1000.0
20260906093203 27 20 1.6 3.2 0.00 0.00 0.00 77 1000.0
20260906092703 27 41 1.6 1.6 0.00 0.00 0.00 77 1000.0
20260906092203 27 46 1.6 3.2 0.00 0.00 0.00 78 1000.0
20260906091704 27 51 1.6 3.2 0.00 0.00 0.00 78 1000.0
20260906090703 27 36 1.6 3.2 0.00 0.00 0.00 78 1000.0
20260906090204 27 60 0.0 3.2 0.00 0.00 0.00 78 1000.0
20260906085704 27 12 3.2 4.8 0.00 0.00 0.00 77 1000.0
20260906085204 27 19 0.0 4.8 0.00 0.00 0.00 76 1000.0
20260906084705 27 39 1.6 3.2 0.00 0.00 0.00 76 1000.0
20260906083704 27 50 1.6 3.2 0.00 0.00 0.00 75 1000.0
20260906083204 26 89 1.6 3.2 0.00 0.00 0.00 76 1000.0
20260906082204 26 80 1.6 3.2 0.00 0.00 0.00 81 1000.0
20260906081704 26 132 3.2 4.8 0.00 0.00 0.00 81 1000.0
20260906081204 26 141 3.2 4.8 0.00 0.00 0.00 81 1000.0
20260906080704 26 152 3.2 4.8 0.00 0.00 0.00 80 1000.0
20260906080204 27 140 3.2 4.8 0.00 0.00 0.00 79 1000.0
20260906075703 27 138 4.8 4.8 0.00 0.00 0.00 76 1000.0
20260906074704 28 16 0.0 0.0 0.00 0.00 0.00 71 1000.0
20260906074203 28 16 0.0 0.0 0.00 0.00 0.00 71 1000.0
20260906073703 28 16 0.0 1.6 0.00 0.00 0.00 71 1000.0
20260906073204 28 1 0.0 1.6 0.00 0.00 0.00 71 1000.0
20260906072203 28 5 0.0 0.0 0.00 0.00 0.00 71 1000.0
20260906071704 28 5 0.0 0.0 0.00 0.00 0.00 71 1000.0
20260906071203 28 5 0.0 3.2 0.00 0.00 0.00 71 1000.0
20260906070704 28 355 1.6 3.2 0.00 0.00 0.00 71 1000.0
20260906070204 28 8 1.6 3.2 0.00 0.00 0.00 71 1000.0
20260906065703 28 7 1.6 3.2 0.00 0.00 0.00 72 1000.0
20260906065204 28 3 3.2 3.2 0.00 0.00 0.00 72 1000.0
20260906064704 28 9 3.2 4.8 0.00 0.00 0.00 72 1000.0
20260906064204 28 2 3.2 4.8 0.00 0.00 0.00 71 1000.0
20260906063203 28 1 0.0 3.2 0.00 0.00 0.00 70 1000.0
20260906062704 28 16 1.6 3.2 0.00 0.00 0.00 70 1000.0
20260906062203 29 321 0.0 0.0 0.00 0.00 0.00 68 1000.0
20260906061703 29 320 0.0 3.2 0.00 0.00 0.00 68 1000.0
20260906060703 29 337 1.6 1.6 0.00 0.00 0.00 68 1000.0
20260906060203 29 343 1.6 3.2 0.00 0.00 0.00 67 1000.0
20260906055704 30 339 1.6 3.2 0.00 0.00 0.00 66 1000.0
20260906055204 30 346 3.2 4.8 0.00 0.00 0.00 65 1000.0
20260906054203 30 19 0.0 3.2 0.00 0.00 0.00 62 1000.0
20260906053704 30 18 0.0 0.0 0.00 0.00 0.00 61 1000.0
20260906053204 30 18 0.0 0.0 0.00 0.00 0.00 61 1000.0
20260906052704 30 18 0.0 0.0 0.00 0.00 0.00 60 1000.0
20260906051703 30 18 0.0 0.0 0.00 0.00 0.00 59 1000.0
20260906051204 30 18 0.0 1.6 0.00 0.00 0.00 59 1000.0
20260906050703 30 50 0.0 3.2 0.00 0.00 0.00 58 1000.0
20260906050204 30 33 0.0 0.0 0.00 0.00 0.00 58 1000.0
20260906045204 30 59 1.6 3.2 0.00 0.00 0.00 58 1000.0
20260906044704 30 67 1.6 3.2 0.00 0.00 0.00 58 1000.0
20260906043704 30 15 1.6 3.2 0.00 0.00 0.00 59 1000.0
20260906043204 30 75 1.6 3.2 0.00 0.00 0.00 60 1000.0
20260906042703 30 100 1.6 4.8 0.00 0.00 0.00 61 1000.0
20260906042204 30 104 1.6 3.2 0.00 0.00 0.00 62 1000.0
20260906041704 30 155 3.2 4.8 0.00 0.00 0.00 58 1000.0
20260906041203 31 125 3.2 4.8 0.00 0.00 0.00 56 1000.0
20260906040703 31 46 1.6 8.0 0.00 0.00 0.00 55 1000.0
20260906040204 31 78 1.6 3.2 0.00 0.00 0.00 54 1000.0
20260906035704 31 63 0.0 0.0 0.00 0.00 0.00 54 1000.0
20260906035204 31 63 0.0 0.0 0.00 0.00 0.00 54 1000.0
20260906034704 31 63 0.0 0.0 0.00 0.00 0.00 55 1000.0
20260906033203 30 120 3.2 8.0 0.00 0.00 0.00 57 1000.0
20260906032204 30 132 3.2 4.8 0.00 0.00 0.00 57 1000.0
20260906031704 31 127 3.2 4.8 0.00 0.00 0.00 58 1000.0
20260906031203 31 136 4.8 8.0 0.00 0.00 0.00 56 1000.0
20260906030703 31 137 3.2 4.8 0.00 0.00 0.00 55 1000.0
20260906030203 32 143 3.2 3.2 0.00 0.00 0.00 53 1000.0
20260906025204 32 67 0.0 0.0 0.00 0.00 0.00 51 1000.0
20260906024703 32 67 0.0 0.0 0.00 0.00 0.00 51 1000.0
20260906024204 32 67 0.0 0.0 0.00 0.00 0.00 50 1000.0
20260906023704 32 59 1.6 3.2 0.00 0.00 0.00 50 1000.0
20260906023203 33 21 0.0 1.6 0.00 0.00 0.00 49 1000.0
20260906022703 33 16 0.0 1.6 0.00 0.00 0.00 49 1000.0
20260906022204 33 40 0.0 1.6 0.00 0.00 0.00 48 1000.0
20260906021204 33 351 0.0 4.8 0.00 0.00 0.00 47 1000.0
20260906020703 33 349 1.6 3.2 0.00 0.00 0.00 47 1000.0
20260906020204 33 355 3.2 4.8 0.00 0.00 0.00 47 1000.0
20260906015703 33 15 3.2 4.8 0.00 0.00 0.00 47 1000.0
20260906015203 33 10 4.8 8.0 0.00 0.00 0.00 46 1000.0
20260906014704 33 3 3.2 4.8 0.00 0.00 0.00 46 1000.0
20260906014204 33 12 3.2 8.0 0.00 0.00 0.00 46 1000.0
20260906013204 34 6 3.2 8.0 0.00 0.00 0.00 45 1000.0
20260906012704 34 4 3.2 8.0 0.00 0.00 0.00 45 1000.0
20260906012204 34 7 3.2 8.0 0.00 0.00 0.00 44 1000.0
20260906011704 34 357 3.2 4.8 0.00 0.00 0.00 44 1000.0
20260906011204 34 9 3.2 8.0 0.00 0.00 0.00 44 1000.0
20260906010703 34 6 4.8 9.7 0.00 0.00 0.00 43 1000.0
20260906005204 35 15 3.2 8.0 0.00 0.00 0.00 42 1000.0
20260906004704 35 12 4.8 8.0 0.00 0.00 0.00 42 1000.0
20260906004203 35 2 3.2 8.0 0.00 0.00 0.00 41 1000.0
20260906003704 35 5 4.8 9.7 0.00 0.00 0.00 40 1000.0
20260906003204 35 4 4.8 8.0 0.00 0.00 0.00 40 1000.0
20260906002704 35 14 4.8 11.3 0.00 0.00 0.00 40 1000.0
20260906001704 36 15 6.4 9.7 0.00 0.00 0.00 38 1000.0
20260906001204 36 12 4.8 11.3 0.00 0.00 0.00 38 1000.0
20260906000704 36 13 8.0 11.3 0.00 0.00 0.00 38 1000.0
20260905235703 36 8 8.0 12.9 0.00 0.00 0.00 37 1000.0
20260905235204 36 0 4.8 12.9 0.00 0.00 0.00 36 1000.0
20260905234703 37 14 3.2 11.3 0.00 0.00 0.00 36 1000.0
20260905234204 37 14 8.0 11.3 0.00 0.00 0.00 36 1000.0
20260905233704 37 2 4.8 12.9 0.00 0.00 0.00 35 1000.0
20260905233204 37 6 4.8 12.9 0.00 0.00 0.00 35 1000.0
20260905232703 37 8 8.0 14.5 0.00 0.00 0.00 34 1000.0
20260905232204 37 354 6.4 12.9 0.00 0.00 0.00 34 1000.0
20260905231704 37 358 6.4 14.5 0.00 0.00 0.00 34 1000.0
20260905231203 37 23 6.4 12.9 0.00 0.00 0.00 33 1000.0
20260905230705 38 23 3.2 11.3 0.00 0.00 0.00 33 1000.0
20260905230204 38 34 4.8 11.3 0.00 0.00 0.00 33 1000.0
20260905225704 38 7 8.0 12.9 0.00 0.00 0.00 32 1000.0
20260905225203 38 45 3.2 12.9 0.00 0.00 0.00 33 1000.0
20260905224704 38 18 4.8 14.5 0.00 0.00 0.00 32 1000.0
20260905224204 38 356 6.4 14.5 0.00 0.00 0.00 32 1000.0
20260905223704 38 41 6.4 11.3 0.00 0.00 0.00 32 1000.0
20260905223204 38 324 4.8 12.9 0.00 0.00 0.00 31 1000.0
20260905222704 38 9 9.7 14.5 0.00 0.00 0.00 31 1000.0
20260905222203 38 35 4.8 11.3 0.00 0.00 0.00 31 1000.0
20260905221704 38 14 3.2 9.7 0.00 0.00 0.00 31 1000.0
20260905221203 38 346 4.8 12.9 0.00 0.00 0.00 31 1000.0
20260905220703 38 59 3.2 8.0 0.00 0.00 0.00 31 1000.0
20260905215704 38 2 8.0 16.1 0.00 0.00 0.00 31 1000.0
20260905215203 38 15 4.8 14.5 0.00 0.00 0.00 31 1000.0
20260905214704 38 359 8.0 14.5 0.00 0.00 0.00 31 1000.0
20260905214204 38 10 4.8 14.5 0.00 0.00 0.00 30 1000.0
20260905213704 38 17 4.8 12.9 0.00 0.00 0.00 30 1000.0
20260905212704 38 316 4.8 12.9 0.00 0.00 0.00 30 1000.0
20260905212203 38 346 4.8 11.3 0.00 0.00 0.00 30 1000.0
20260905211704 38 319 1.6 3.2 0.00 0.00 0.00 30 1000.0
20260905210704 38 351 4.8 14.5 0.00 0.00 0.00 30 1000.0
20260905210204 38 9 9.7 16.1 0.00 0.00 0.00 30 1000.0
20260905205704 38 351 8.0 19.3 0.00 0.00 0.00 29 1000.0
20260905205203 39 329 4.8 11.3 0.00 0.00 0.00 29 1000.0
20260905204704 38 11 3.2 9.7 0.00 0.00 0.00 29 1000.0
20260905204204 38 26 3.2 9.7 0.00 0.00 0.00 29 1000.0
20260905203703 38 3 4.8 14.5 0.00 0.00 0.00 29 1000.0
20260905203203 38 1 8.0 12.9 0.00 0.00 0.00 29 1000.0
20260905202704 38 3 6.4 14.5 0.00 0.00 0.00 30 1000.0
20260905202204 38 354 8.0 14.5 0.00 0.00 0.00 30 1000.0
20260905201703 38 67 4.8 14.5 0.00 0.00 0.00 31 1000.0
20260905201204 38 4 4.8 14.5 0.00 0.00 0.00 31 1000.0
20260905200703 38 5 9.7 14.5 0.00 0.00 0.00 30 1000.0
20260905200204 38 3 8.0 14.5 0.00 0.00 0.00 31 1000.0
20260905195204 38 330 8.0 19.3 0.00 0.00 0.00 30 1000.0
20260905194704 38 16 3.2 8.0 0.00 0.00 0.00 30 1000.0
20260905194203 38 274 4.8 11.3 0.00 0.00 0.00 29 1000.0
20260905193704 38 352 3.2 9.7 0.00 0.00 0.00 29 1000.0
20260905193204 38 282 3.2 9.7 0.00 0.00 0.00 31 1000.0
20260905192703 38 279 4.8 12.9 0.00 0.00 0.00 32 1000.0
20260905191204 38 309 8.0 12.9 0.00 0.00 0.00 30 1000.0
20260905190704 38 354 3.2 11.3 0.00 0.00 0.00 30 1000.0
20260905190204 38 341 4.8 11.3 0.00 0.00 0.00 30 1000.0
20260905185704 38 343 4.8 11.3 0.00 0.00 0.00 31 1000.0
20260905184704 38 212 4.8 14.5 0.00 0.00 0.00 32 1000.0
20260905184204 38 342 6.4 14.5 0.00 0.00 0.00 33 1000.0
20260905183203 37 336 11.3 16.1 0.00 0.00 0.00 33 1000.0
20260905181704 37 337 8.0 14.5 0.00 0.00 0.00 33 1000.0
20260905181205 37 311 9.7 16.1 0.00 0.00 0.00 35 1000.0
20260905180704 37 303 8.0 16.1 0.00 0.00 0.00 32 1000.0
20260905180204 37 282 4.8 14.5 0.00 0.00 0.00 34 1000.0
20260905175704 37 291 4.8 14.5 0.00 0.00 0.00 34 1000.0
20260905175204 37 290 6.4 12.9 0.00 0.00 0.00 35 1000.0
20260905174704 37 324 6.4 14.5 0.00 0.00 0.00 36 1000.0
20260905174204 37 345 4.8 12.9 0.00 0.00 0.00 36 1000.0
20260905173204 37 347 4.8 11.3 0.00 0.00 0.00 35 1000.0
20260905172704 37 357 1.6 9.7 0.00 0.00 0.00 36 1000.0
20260905172204 37 352 4.8 9.7 0.00 0.00 0.00 36 1000.0
20260905171704 36 233 3.2 8.0 0.00 0.00 0.00 39 1000.0
20260905171204 36 308 4.8 12.9 0.00 0.00 0.00 39 1000.0
20260905170704 36 297 4.8 12.9 0.00 0.00 0.00 39 1000.0
20260905170204 36 0 1.6 9.7 0.00 0.00 0.00 40 1000.0
20260905165708 36 284 4.8 14.5 0.00 0.00 0.00 40 1000.0